Year,Month,Day,Hour,Minute,Value (Times are PST for temperature in C)
2012,04,26,00,00,11.40
2012,04,26,00,01,11.40
2012,04,26,00,02,11.40
2012,04,26,00,03,11.40
2012,04,26,00,04,11.40
2012,04,26,00,05,11.40
2012,04,26,00,06,11.40
2012,04,26,00,07,11.40
2012,04,26,00,08,11.40
2012,04,26,00,09,11.40
2012,04,26,00,10,11.40
2012,04,26,00,11,11.40
2012,04,26,00,12,11.40
2012,04,26,00,13,11.40
2012,04,26,00,14,11.40
2012,04,26,00,15,11.40
2012,04,26,00,16,11.40
2012,04,26,00,17,11.40
2012,04,26,00,18,11.40
2012,04,26,00,19,11.40
2012,04,26,00,20,11.40
2012,04,26,00,21,11.40
2012,04,26,00,22,11.40
2012,04,26,00,23,11.40
2012,04,26,00,24,11.40
2012,04,26,00,25,11.30
2012,04,26,00,26,11.30
2012,04,26,00,27,11.30
2012,04,26,00,28,11.30
2012,04,26,00,29,11.30
2012,04,26,00,30,11.20
2012,04,26,00,31,11.20
2012,04,26,00,32,11.20
2012,04,26,00,33,11.20
2012,04,26,00,34,11.20
2012,04,26,00,35,11.20
2012,04,26,00,36,11.10
2012,04,26,00,37,11.10
2012,04,26,00,38,11.10
2012,04,26,00,39,11.00
2012,04,26,00,40,11.00
2012,04,26,00,41,11.00
2012,04,26,00,42,11.00
2012,04,26,00,43,11.00
2012,04,26,00,44,11.00
2012,04,26,00,45,11.00
2012,04,26,00,46,11.00
2012,04,26,00,47,11.00
2012,04,26,00,48,11.00
2012,04,26,00,49,11.10
2012,04,26,00,50,11.10
2012,04,26,00,51,11.00
2012,04,26,00,52,11.00
2012,04,26,00,53,11.00
2012,04,26,00,54,11.00
2012,04,26,00,55,11.00
2012,04,26,00,56,11.00
2012,04,26,00,57,11.00
2012,04,26,00,58,11.00
2012,04,26,00,59,11.00
2012,04,26,01,00,11.00
2012,04,26,01,01,11.00
2012,04,26,01,02,11.00
2012,04,26,01,03,11.00
2012,04,26,01,04,11.10
2012,04,26,01,05,11.10
2012,04,26,01,06,11.10
2012,04,26,01,07,11.10
2012,04,26,01,08,11.10
2012,04,26,01,09,11.10
2012,04,26,01,10,11.10
2012,04,26,01,11,11.10
2012,04,26,01,12,11.10
2012,04,26,01,13,11.20
2012,04,26,01,14,11.20
2012,04,26,01,15,11.20
2012,04,26,01,16,11.20
2012,04,26,01,17,11.30
2012,04,26,01,18,11.30
2012,04,26,01,19,11.30
2012,04,26,01,20,11.30
2012,04,26,01,21,11.30
2012,04,26,01,22,11.30
2012,04,26,01,23,11.30
2012,04,26,01,24,11.30
2012,04,26,01,25,11.30
2012,04,26,01,26,11.30
2012,04,26,01,27,11.20
2012,04,26,01,28,11.20
2012,04,26,01,29,11.20
2012,04,26,01,30,11.20
2012,04,26,01,31,11.10
2012,04,26,01,32,11.10
2012,04,26,01,33,11.10
2012,04,26,01,34,11.10
2012,04,26,01,35,11.00
2012,04,26,01,36,11.00
2012,04,26,01,37,11.00
2012,04,26,01,38,10.90
2012,04,26,01,39,10.90
2012,04,26,01,40,10.90
2012,04,26,01,41,10.90
2012,04,26,01,42,10.80
2012,04,26,01,43,10.80
2012,04,26,01,44,10.80
2012,04,26,01,45,10.70
2012,04,26,01,46,10.70
2012,04,26,01,47,10.70
2012,04,26,01,48,10.70
2012,04,26,01,49,10.60
2012,04,26,01,50,10.60
2012,04,26,01,51,10.60
2012,04,26,01,52,10.60
2012,04,26,01,53,10.60
2012,04,26,01,54,10.50
2012,04,26,01,55,10.50
2012,04,26,01,56,10.40
2012,04,26,01,57,10.40
2012,04,26,01,58,10.40
2012,04,26,01,59,10.40
2012,04,26,02,00,10.30
2012,04,26,02,01,10.30
2012,04,26,02,02,10.20
2012,04,26,02,03,10.20
2012,04,26,02,04,10.10
2012,04,26,02,05,10.10
2012,04,26,02,06,10.10
2012,04,26,02,07,10.00
2012,04,26,02,08,10.00
2012,04,26,02,09,10.00
2012,04,26,02,10,10.00
2012,04,26,02,11,9.90
2012,04,26,02,12,9.90
2012,04,26,02,13,9.90
2012,04,26,02,14,9.90
2012,04,26,02,15,9.80
2012,04,26,02,16,9.80
2012,04,26,02,17,9.80
2012,04,26,02,18,9.80
2012,04,26,02,19,9.80
2012,04,26,02,20,9.80
2012,04,26,02,21,9.80
2012,04,26,02,22,9.80
2012,04,26,02,23,9.70
2012,04,26,02,24,9.70
2012,04,26,02,25,9.70
2012,04,26,02,26,9.70
2012,04,26,02,27,9.70
2012,04,26,02,28,9.70
2012,04,26,02,29,9.70
2012,04,26,02,30,9.70
2012,04,26,02,31,9.70
2012,04,26,02,32,9.70
2012,04,26,02,33,9.70
2012,04,26,02,34,9.60
2012,04,26,02,35,9.60
2012,04,26,02,36,9.60
2012,04,26,02,37,9.60
2012,04,26,02,38,9.60
2012,04,26,02,39,9.60
2012,04,26,02,40,9.60
2012,04,26,02,41,9.60
2012,04,26,02,42,9.60
2012,04,26,02,43,9.60
2012,04,26,02,44,9.60
2012,04,26,02,45,9.50
2012,04,26,02,46,9.50
2012,04,26,02,47,9.50
2012,04,26,02,48,9.50
2012,04,26,02,49,9.50
2012,04,26,02,50,9.50
2012,04,26,02,51,9.40
2012,04,26,02,52,9.40
2012,04,26,02,53,9.40
2012,04,26,02,54,9.40
2012,04,26,02,55,9.40
2012,04,26,02,56,9.40
2012,04,26,02,57,9.40
2012,04,26,02,58,9.40
2012,04,26,02,59,9.40
2012,04,26,03,00,9.40
2012,04,26,03,01,9.40
2012,04,26,03,02,9.30
2012,04,26,03,03,9.30
2012,04,26,03,04,9.30
2012,04,26,03,05,9.30
2012,04,26,03,06,9.30
2012,04,26,03,07,9.30
2012,04,26,03,08,9.30
2012,04,26,03,09,9.30
2012,04,26,03,10,9.30
2012,04,26,03,11,9.30
2012,04,26,03,12,9.30
2012,04,26,03,13,9.30
2012,04,26,03,14,9.30
2012,04,26,03,15,9.20
2012,04,26,03,16,9.20
2012,04,26,03,17,9.20
2012,04,26,03,18,9.20
2012,04,26,03,19,9.20
2012,04,26,03,20,9.20
2012,04,26,03,21,9.20
2012,04,26,03,22,9.20
2012,04,26,03,23,9.20
2012,04,26,03,24,9.10
2012,04,26,03,25,9.10
2012,04,26,03,26,9.10
2012,04,26,03,27,9.10
2012,04,26,03,28,9.10
2012,04,26,03,29,9.10
2012,04,26,03,30,9.10
2012,04,26,03,31,9.10
2012,04,26,03,32,9.00
2012,04,26,03,33,9.00
2012,04,26,03,34,9.00
2012,04,26,03,35,9.00
2012,04,26,03,36,9.00
2012,04,26,03,37,9.00
2012,04,26,03,38,8.90
2012,04,26,03,39,8.90
2012,04,26,03,40,8.90
2012,04,26,03,41,8.90
2012,04,26,03,42,8.90
2012,04,26,03,43,8.90
2012,04,26,03,44,8.90
2012,04,26,03,45,8.90
2012,04,26,03,46,8.90
2012,04,26,03,47,8.90
2012,04,26,03,48,8.90
2012,04,26,03,49,8.90
2012,04,26,03,50,8.90
2012,04,26,03,51,8.90
2012,04,26,03,52,8.90
2012,04,26,03,53,8.90
2012,04,26,03,54,8.80
2012,04,26,03,55,8.80
2012,04,26,03,56,8.80
2012,04,26,03,57,8.80
2012,04,26,03,58,8.80
2012,04,26,03,59,8.80
2012,04,26,04,00,8.80
2012,04,26,04,01,8.80
2012,04,26,04,02,8.80
2012,04,26,04,03,8.80
2012,04,26,04,04,8.80
2012,04,26,04,05,8.80
2012,04,26,04,06,8.70
2012,04,26,04,07,8.70
2012,04,26,04,08,8.70
2012,04,26,04,09,8.70
2012,04,26,04,10,8.70
2012,04,26,04,11,8.70
2012,04,26,04,12,8.70
2012,04,26,04,13,8.70
2012,04,26,04,14,8.70
2012,04,26,04,15,8.70
2012,04,26,04,16,8.70
2012,04,26,04,17,8.70
2012,04,26,04,18,8.60
2012,04,26,04,19,8.60
2012,04,26,04,20,8.60
2012,04,26,04,21,8.60
2012,04,26,04,22,8.60
2012,04,26,04,23,8.60
2012,04,26,04,24,8.60
2012,04,26,04,25,8.60
2012,04,26,04,26,8.60
2012,04,26,04,27,8.60
2012,04,26,04,28,8.60
2012,04,26,04,29,8.60
2012,04,26,04,30,8.50
2012,04,26,04,31,8.50
2012,04,26,04,32,8.50
2012,04,26,04,33,8.50
2012,04,26,04,34,8.50
2012,04,26,04,35,8.50
2012,04,26,04,36,8.50
2012,04,26,04,37,8.50
2012,04,26,04,38,8.50
2012,04,26,04,39,8.50
2012,04,26,04,40,8.50
2012,04,26,04,41,8.50
2012,04,26,04,42,8.40
2012,04,26,04,43,8.50
2012,04,26,04,44,8.40
2012,04,26,04,45,8.40
2012,04,26,04,46,8.40
2012,04,26,04,47,8.40
2012,04,26,04,48,8.40
2012,04,26,04,49,8.40
2012,04,26,04,50,8.40
2012,04,26,04,51,8.40
2012,04,26,04,52,8.40
2012,04,26,04,53,8.40
2012,04,26,04,54,8.40
2012,04,26,04,55,8.40
2012,04,26,04,56,8.40
2012,04,26,04,57,8.40
2012,04,26,04,58,8.40
2012,04,26,04,59,8.40
2012,04,26,05,00,8.40
2012,04,26,05,01,8.40
2012,04,26,05,02,8.40
2012,04,26,05,03,8.30
2012,04,26,05,04,8.30
2012,04,26,05,05,8.30
2012,04,26,05,06,8.30
2012,04,26,05,07,8.30
2012,04,26,05,08,8.30
2012,04,26,05,09,8.40
2012,04,26,05,10,8.30
2012,04,26,05,11,8.40
2012,04,26,05,12,8.40
2012,04,26,05,13,8.40
2012,04,26,05,14,8.40
2012,04,26,05,15,8.40
2012,04,26,05,16,8.40
2012,04,26,05,17,8.40
2012,04,26,05,18,8.40
2012,04,26,05,19,8.40
2012,04,26,05,20,8.40
2012,04,26,05,21,8.40
2012,04,26,05,22,8.30
2012,04,26,05,23,8.30
2012,04,26,05,24,8.30
2012,04,26,05,25,8.30
2012,04,26,05,26,8.30
2012,04,26,05,27,8.30
2012,04,26,05,28,8.30
2012,04,26,05,29,8.30
2012,04,26,05,30,8.30
2012,04,26,05,31,8.30
2012,04,26,05,32,8.30
2012,04,26,05,33,8.30
2012,04,26,05,34,8.30
2012,04,26,05,35,8.30
2012,04,26,05,36,8.30
2012,04,26,05,37,8.30
2012,04,26,05,38,8.30
2012,04,26,05,39,8.30
2012,04,26,05,40,8.30
2012,04,26,05,41,8.30
2012,04,26,05,42,8.30
2012,04,26,05,43,8.30
2012,04,26,05,44,8.30
2012,04,26,05,45,8.30
2012,04,26,05,46,8.30
2012,04,26,05,47,8.30
2012,04,26,05,48,8.30
2012,04,26,05,49,8.20
2012,04,26,05,50,8.20
2012,04,26,05,51,8.20
2012,04,26,05,52,8.20
2012,04,26,05,53,8.20
2012,04,26,05,54,8.20
2012,04,26,05,55,8.20
2012,04,26,05,56,8.20
2012,04,26,05,57,8.20
2012,04,26,05,58,8.20
2012,04,26,05,59,8.20
2012,04,26,06,00,8.20
2012,04,26,06,01,8.10
2012,04,26,06,02,8.10
2012,04,26,06,03,8.10
2012,04,26,06,04,8.10
2012,04,26,06,05,8.10
2012,04,26,06,06,8.10
2012,04,26,06,07,8.10
2012,04,26,06,08,8.10
2012,04,26,06,09,8.10
2012,04,26,06,10,8.10
2012,04,26,06,11,8.10
2012,04,26,06,12,8.10
2012,04,26,06,13,8.00
2012,04,26,06,14,8.00
2012,04,26,06,15,8.00
2012,04,26,06,16,8.00
2012,04,26,06,17,8.00
2012,04,26,06,18,8.00
2012,04,26,06,19,7.90
2012,04,26,06,20,7.90
2012,04,26,06,21,7.90
2012,04,26,06,22,7.90
2012,04,26,06,23,7.90
2012,04,26,06,24,7.90
2012,04,26,06,25,7.90
2012,04,26,06,26,7.90
2012,04,26,06,27,7.90
2012,04,26,06,28,7.90
2012,04,26,06,29,7.90
2012,04,26,06,30,7.90
2012,04,26,06,31,7.90
2012,04,26,06,32,7.90
2012,04,26,06,33,7.90
2012,04,26,06,34,7.90
2012,04,26,06,35,7.90
2012,04,26,06,36,7.90
2012,04,26,06,37,7.90
2012,04,26,06,38,7.90
2012,04,26,06,39,7.90
2012,04,26,06,40,7.90
2012,04,26,06,41,7.90
2012,04,26,06,42,7.90
2012,04,26,06,43,7.90
2012,04,26,06,44,8.00
2012,04,26,06,45,8.00
2012,04,26,06,46,8.00
2012,04,26,06,47,8.00
2012,04,26,06,48,8.00
2012,04,26,06,49,8.00
2012,04,26,06,50,8.00
2012,04,26,06,51,8.00
2012,04,26,06,52,8.00
2012,04,26,06,53,8.00
2012,04,26,06,54,8.00
2012,04,26,06,55,8.10
2012,04,26,06,56,8.10
2012,04,26,06,57,8.10
2012,04,26,06,58,8.10
2012,04,26,06,59,8.10
2012,04,26,07,00,8.10
2012,04,26,07,01,8.10
2012,04,26,07,02,8.10
2012,04,26,07,03,8.10
2012,04,26,07,04,8.10
2012,04,26,07,05,8.10
2012,04,26,07,06,8.10
2012,04,26,07,07,8.10
2012,04,26,07,08,8.10
2012,04,26,07,09,8.10
2012,04,26,07,10,8.10
2012,04,26,07,11,8.10
2012,04,26,07,12,8.10
2012,04,26,07,13,8.10
2012,04,26,07,14,8.10
2012,04,26,07,15,8.10
2012,04,26,07,16,8.10
2012,04,26,07,17,8.10
2012,04,26,07,18,8.10
2012,04,26,07,19,8.10
2012,04,26,07,20,8.10
2012,04,26,07,21,8.10
2012,04,26,07,22,8.10
2012,04,26,07,23,8.10
2012,04,26,07,24,8.10
2012,04,26,07,25,8.10
2012,04,26,07,26,8.10
2012,04,26,07,27,8.20
2012,04,26,07,28,8.20
2012,04,26,07,29,8.20
2012,04,26,07,30,8.20
2012,04,26,07,31,8.20
2012,04,26,07,32,8.20
2012,04,26,07,33,8.20
2012,04,26,07,34,8.30
2012,04,26,07,35,8.30
2012,04,26,07,36,8.30
2012,04,26,07,37,8.30
2012,04,26,07,38,8.30
2012,04,26,07,39,8.30
2012,04,26,07,40,8.30
2012,04,26,07,41,8.30
2012,04,26,07,42,8.30
2012,04,26,07,43,8.30
2012,04,26,07,44,8.30
2012,04,26,07,45,8.40
2012,04,26,07,46,8.40
2012,04,26,07,47,8.40
2012,04,26,07,48,8.40
2012,04,26,07,49,8.40
2012,04,26,07,50,8.40
2012,04,26,07,51,8.40
2012,04,26,07,52,8.40
2012,04,26,07,53,8.40
2012,04,26,07,54,8.40
2012,04,26,07,55,8.40
2012,04,26,07,56,8.40
2012,04,26,07,57,8.40
2012,04,26,07,58,8.40
2012,04,26,07,59,8.50
2012,04,26,08,00,8.50
2012,04,26,08,01,8.50
2012,04,26,08,02,8.50
2012,04,26,08,03,8.50
2012,04,26,08,04,8.50
2012,04,26,08,05,8.60
2012,04,26,08,06,8.60
2012,04,26,08,07,8.60
2012,04,26,08,08,8.60
2012,04,26,08,09,8.60
2012,04,26,08,10,8.60
2012,04,26,08,11,8.60
2012,04,26,08,12,8.60
2012,04,26,08,13,8.60
2012,04,26,08,14,8.60
2012,04,26,08,15,8.70
2012,04,26,08,16,8.70
2012,04,26,08,17,8.70
2012,04,26,08,18,8.70
2012,04,26,08,19,8.70
2012,04,26,08,20,8.70
2012,04,26,08,21,8.80
2012,04,26,08,22,8.80
2012,04,26,08,23,8.80
2012,04,26,08,24,8.80
2012,04,26,08,25,8.80
2012,04,26,08,26,8.80
2012,04,26,08,27,8.80
2012,04,26,08,28,8.80
2012,04,26,08,29,8.80
2012,04,26,08,30,8.80
2012,04,26,08,31,8.80
2012,04,26,08,32,8.80
2012,04,26,08,33,8.80
2012,04,26,08,34,8.80
2012,04,26,08,35,8.80
2012,04,26,08,36,8.90
2012,04,26,08,37,8.90
2012,04,26,08,38,8.90
2012,04,26,08,39,8.90
2012,04,26,08,40,8.90
2012,04,26,08,41,8.90
2012,04,26,08,42,8.90
2012,04,26,08,43,9.00
2012,04,26,08,44,9.00
2012,04,26,08,45,9.00
2012,04,26,08,46,9.00
2012,04,26,08,47,9.10
2012,04,26,08,48,9.10
2012,04,26,08,49,9.10
2012,04,26,08,50,9.10
2012,04,26,08,51,9.10
2012,04,26,08,52,9.10
2012,04,26,08,53,9.20
2012,04,26,08,54,9.20
2012,04,26,08,55,9.20
2012,04,26,08,56,9.20
2012,04,26,08,57,9.20
2012,04,26,08,58,9.30
2012,04,26,08,59,9.30
2012,04,26,09,00,9.30
2012,04,26,09,01,9.30
2012,04,26,09,02,9.30
2012,04,26,09,03,9.30
2012,04,26,09,04,9.40
2012,04,26,09,05,9.40
2012,04,26,09,06,9.40
2012,04,26,09,07,9.40
2012,04,26,09,08,9.40
2012,04,26,09,09,9.40
2012,04,26,09,10,9.50
2012,04,26,09,11,9.50
2012,04,26,09,12,9.50
2012,04,26,09,13,9.50
2012,04,26,09,14,9.50
2012,04,26,09,15,9.50
2012,04,26,09,16,9.50
2012,04,26,09,17,9.50
2012,04,26,09,18,9.50
2012,04,26,09,19,9.60
2012,04,26,09,20,9.60
2012,04,26,09,21,9.60
2012,04,26,09,22,9.60
2012,04,26,09,23,9.70
2012,04,26,09,24,9.70
2012,04,26,09,25,9.70
2012,04,26,09,26,9.80
2012,04,26,09,27,9.80
2012,04,26,09,28,9.80
2012,04,26,09,29,9.80
2012,04,26,09,30,9.90
2012,04,26,09,31,9.90
2012,04,26,09,32,10.00
2012,04,26,09,33,10.00
2012,04,26,09,34,10.10
2012,04,26,09,35,10.10
2012,04,26,09,36,10.20
2012,04,26,09,37,10.20
2012,04,26,09,38,10.30
2012,04,26,09,39,10.30
2012,04,26,09,40,10.30
2012,04,26,09,41,10.40
2012,04,26,09,42,10.40
2012,04,26,09,43,10.50
2012,04,26,09,44,10.60
2012,04,26,09,45,10.60
2012,04,26,09,46,10.70
2012,04,26,09,47,10.70
2012,04,26,09,48,10.70
2012,04,26,09,49,10.80
2012,04,26,09,50,10.80
2012,04,26,09,51,10.90
2012,04,26,09,52,11.00
2012,04,26,09,53,11.00
2012,04,26,09,54,11.10
2012,04,26,09,55,11.20
2012,04,26,09,56,11.20
2012,04,26,09,57,11.30
2012,04,26,09,58,11.30
2012,04,26,09,59,11.40
2012,04,26,10,00,11.50
2012,04,26,10,01,11.60
2012,04,26,10,02,11.80
2012,04,26,10,03,11.90
2012,04,26,10,04,11.90
2012,04,26,10,05,12.00
2012,04,26,10,06,12.10
2012,04,26,10,07,12.10
2012,04,26,10,08,12.20
2012,04,26,10,09,12.20
2012,04,26,10,10,12.30
2012,04,26,10,11,12.30
2012,04,26,10,12,12.40
2012,04,26,10,13,12.40
2012,04,26,10,14,12.40
2012,04,26,10,15,12.30
2012,04,26,10,16,12.30
2012,04,26,10,17,12.30
2012,04,26,10,18,12.20
2012,04,26,10,19,12.10
2012,04,26,10,20,12.00
2012,04,26,10,21,11.80
2012,04,26,10,22,11.80
2012,04,26,10,23,11.70
2012,04,26,10,24,11.70
2012,04,26,10,25,11.80
2012,04,26,10,26,11.80
2012,04,26,10,27,11.90
2012,04,26,10,28,11.90
2012,04,26,10,29,12.00
2012,04,26,10,30,12.10
2012,04,26,10,31,12.20
2012,04,26,10,32,12.20
2012,04,26,10,33,12.30
2012,04,26,10,34,12.30
2012,04,26,10,35,12.30
2012,04,26,10,36,12.40
2012,04,26,10,37,12.30
2012,04,26,10,38,12.30
2012,04,26,10,39,12.30
2012,04,26,10,40,12.30
2012,04,26,10,41,12.30
2012,04,26,10,42,12.20
2012,04,26,10,43,12.10
2012,04,26,10,44,12.00
2012,04,26,10,45,12.00
2012,04,26,10,46,11.90
2012,04,26,10,47,11.90
2012,04,26,10,48,11.90
2012,04,26,10,49,12.00
2012,04,26,10,50,12.10
2012,04,26,10,51,12.10
2012,04,26,10,52,12.10
2012,04,26,10,53,12.20
2012,04,26,10,54,12.20
2012,04,26,10,55,12.30
2012,04,26,10,56,12.30
2012,04,26,10,57,12.30
2012,04,26,10,58,12.40
2012,04,26,10,59,12.40
2012,04,26,11,00,12.50
2012,04,26,11,01,12.50
2012,04,26,11,02,12.60
2012,04,26,11,03,12.70
2012,04,26,11,04,12.70
2012,04,26,11,05,12.70
2012,04,26,11,06,12.70
2012,04,26,11,07,12.70
2012,04,26,11,08,12.70
2012,04,26,11,09,12.60
2012,04,26,11,10,12.60
2012,04,26,11,11,12.50
2012,04,26,11,12,12.50
2012,04,26,11,13,12.40
2012,04,26,11,14,12.40
2012,04,26,11,15,12.30
2012,04,26,11,16,12.30
2012,04,26,11,17,12.20
2012,04,26,11,18,12.10
2012,04,26,11,19,12.00
2012,04,26,11,20,11.90
2012,04,26,11,21,11.80
2012,04,26,11,22,11.80
2012,04,26,11,23,11.80
2012,04,26,11,24,11.90
2012,04,26,11,25,11.90
2012,04,26,11,26,12.00
2012,04,26,11,27,12.00
2012,04,26,11,28,12.10
2012,04,26,11,29,12.10
2012,04,26,11,30,12.20
2012,04,26,11,31,12.30
2012,04,26,11,32,12.30
2012,04,26,11,33,12.30
2012,04,26,11,34,12.20
2012,04,26,11,35,12.10
2012,04,26,11,36,11.90
2012,04,26,11,37,11.80
2012,04,26,11,38,11.70
2012,04,26,11,39,11.70
2012,04,26,11,40,11.70
2012,04,26,11,41,11.70
2012,04,26,11,42,11.70
2012,04,26,11,43,11.80
2012,04,26,11,44,11.90
2012,04,26,11,45,12.00
2012,04,26,11,46,12.20
2012,04,26,11,47,12.30
2012,04,26,11,48,12.30
2012,04,26,11,49,12.50
2012,04,26,11,50,12.60
2012,04,26,11,51,12.70
2012,04,26,11,52,12.80
2012,04,26,11,53,12.90
2012,04,26,11,54,13.00
2012,04,26,11,55,13.10
2012,04,26,11,56,13.10
2012,04,26,11,57,13.20
2012,04,26,11,58,13.20
2012,04,26,11,59,13.30
2012,04,26,12,00,13.30
2012,04,26,12,01,13.40
2012,04,26,12,02,13.40
2012,04,26,12,03,13.50
2012,04,26,12,04,13.50
2012,04,26,12,05,13.40
2012,04,26,12,06,13.50
2012,04,26,12,07,13.50
2012,04,26,12,08,13.60
2012,04,26,12,09,13.70
2012,04,26,12,10,13.70
2012,04,26,12,11,13.80
2012,04,26,12,12,13.80
2012,04,26,12,13,13.80
2012,04,26,12,14,13.90
2012,04,26,12,15,13.90
2012,04,26,12,16,14.00
2012,04,26,12,17,14.00
2012,04,26,12,18,14.10
2012,04,26,12,19,14.10
2012,04,26,12,20,14.20
2012,04,26,12,21,14.30
2012,04,26,12,22,14.30
2012,04,26,12,23,14.40
2012,04,26,12,24,14.40
2012,04,26,12,25,14.30
2012,04,26,12,26,14.20
2012,04,26,12,27,14.10
2012,04,26,12,28,14.10
2012,04,26,12,29,14.20
2012,04,26,12,30,14.20
2012,04,26,12,31,14.30
2012,04,26,12,32,14.40
2012,04,26,12,33,14.50
2012,04,26,12,34,14.50
2012,04,26,12,35,14.50
2012,04,26,12,36,14.50
2012,04,26,12,37,14.60
2012,04,26,12,38,14.70
2012,04,26,12,39,14.70
2012,04,26,12,40,14.80
2012,04,26,12,41,14.80
2012,04,26,12,42,14.80
2012,04,26,12,43,14.80
2012,04,26,12,44,14.80
2012,04,26,12,45,14.90
2012,04,26,12,46,14.90
2012,04,26,12,47,14.90
2012,04,26,12,48,14.90
2012,04,26,12,49,14.80
2012,04,26,12,50,14.70
2012,04,26,12,51,14.60
2012,04,26,12,52,14.60
2012,04,26,12,53,14.60
2012,04,26,12,54,14.70
2012,04,26,12,55,14.80
2012,04,26,12,56,14.80
2012,04,26,12,57,14.80
2012,04,26,12,58,14.80
2012,04,26,12,59,14.90
2012,04,26,13,00,14.90
2012,04,26,13,01,15.00
2012,04,26,13,02,15.10
2012,04,26,13,03,15.20
2012,04,26,13,04,15.30
2012,04,26,13,05,15.40
2012,04,26,13,06,15.40
2012,04,26,13,07,15.40
2012,04,26,13,08,15.50
2012,04,26,13,09,15.50
2012,04,26,13,10,15.60
2012,04,26,13,11,15.60
2012,04,26,13,12,15.70
2012,04,26,13,13,15.80
2012,04,26,13,14,15.80
2012,04,26,13,15,15.70
2012,04,26,13,16,15.70
2012,04,26,13,17,15.70
2012,04,26,13,18,15.70
2012,04,26,13,19,15.70
2012,04,26,13,20,15.70
2012,04,26,13,21,15.70
2012,04,26,13,22,15.60
2012,04,26,13,23,15.60
2012,04,26,13,24,15.60
2012,04,26,13,25,15.60
2012,04,26,13,26,15.70
2012,04,26,13,27,15.70
2012,04,26,13,28,15.70
2012,04,26,13,29,15.70
2012,04,26,13,30,15.70
2012,04,26,13,31,15.60
2012,04,26,13,32,15.60
2012,04,26,13,33,15.70
2012,04,26,13,34,15.70
2012,04,26,13,35,15.80
2012,04,26,13,36,15.80
2012,04,26,13,37,15.80
2012,04,26,13,38,15.80
2012,04,26,13,39,15.70
2012,04,26,13,40,15.70
2012,04,26,13,41,15.70
2012,04,26,13,42,15.60
2012,04,26,13,43,15.70
2012,04,26,13,44,15.60
2012,04,26,13,45,15.50
2012,04,26,13,46,15.40
2012,04,26,13,47,15.40
2012,04,26,13,48,15.40
2012,04,26,13,49,15.30
2012,04,26,13,50,15.30
2012,04,26,13,51,15.30
2012,04,26,13,52,15.40
2012,04,26,13,53,15.40
2012,04,26,13,54,15.40
2012,04,26,13,55,15.30
2012,04,26,13,56,15.20
2012,04,26,13,57,15.20
2012,04,26,13,58,15.00
2012,04,26,13,59,15.00
2012,04,26,14,00,14.90
2012,04,26,14,01,14.70
2012,04,26,14,02,14.60
2012,04,26,14,03,14.50
2012,04,26,14,04,14.40
2012,04,26,14,05,14.30
2012,04,26,14,06,14.20
2012,04,26,14,07,14.20
2012,04,26,14,08,14.20
2012,04,26,14,09,14.10
2012,04,26,14,10,14.10
2012,04,26,14,11,14.10
2012,04,26,14,12,14.10
2012,04,26,14,13,14.00
2012,04,26,14,14,14.00
2012,04,26,14,15,14.00
2012,04,26,14,16,14.10
2012,04,26,14,17,14.20
2012,04,26,14,18,14.20
2012,04,26,14,19,14.40
2012,04,26,14,20,14.60
2012,04,26,14,21,14.70
2012,04,26,14,22,14.80
2012,04,26,14,23,14.80
2012,04,26,14,24,14.80
2012,04,26,14,25,14.90
2012,04,26,14,26,14.90
2012,04,26,14,27,15.00
2012,04,26,14,28,15.10
2012,04,26,14,29,15.10
2012,04,26,14,30,15.10
2012,04,26,14,31,15.00
2012,04,26,14,32,15.00
2012,04,26,14,33,14.80
2012,04,26,14,34,14.70
2012,04,26,14,35,14.70
2012,04,26,14,36,14.60
2012,04,26,14,37,14.60
2012,04,26,14,38,14.50
2012,04,26,14,39,14.50
2012,04,26,14,40,14.50
2012,04,26,14,41,14.50
2012,04,26,14,42,14.60
2012,04,26,14,43,14.70
2012,04,26,14,44,14.80
2012,04,26,14,45,14.90
2012,04,26,14,46,15.10
2012,04,26,14,47,15.10
2012,04,26,14,48,15.00
2012,04,26,14,49,15.00
2012,04,26,14,50,14.90
2012,04,26,14,51,14.90
2012,04,26,14,52,14.90
2012,04,26,14,53,15.00
2012,04,26,14,54,15.00
2012,04,26,14,55,15.00
2012,04,26,14,56,14.90
2012,04,26,14,57,14.90
2012,04,26,14,58,14.90
2012,04,26,14,59,14.90
2012,04,26,15,00,14.90
2012,04,26,15,01,14.90
2012,04,26,15,02,14.80
2012,04,26,15,03,14.70
2012,04,26,15,04,14.60
2012,04,26,15,05,14.70
2012,04,26,15,06,14.80
2012,04,26,15,07,14.90
2012,04,26,15,08,14.90
2012,04,26,15,09,14.80
2012,04,26,15,10,14.80
2012,04,26,15,11,14.90
2012,04,26,15,12,14.90
2012,04,26,15,13,15.00
2012,04,26,15,14,15.30
2012,04,26,15,15,15.60
2012,04,26,15,16,15.70
2012,04,26,15,17,15.80
2012,04,26,15,18,15.70
2012,04,26,15,19,15.50
2012,04,26,15,20,15.20
2012,04,26,15,21,14.90
2012,04,26,15,22,14.70
2012,04,26,15,23,14.60
2012,04,26,15,24,14.50
2012,04,26,15,25,14.40
2012,04,26,15,26,14.50
2012,04,26,15,27,14.70
2012,04,26,15,28,14.80
2012,04,26,15,29,14.80
2012,04,26,15,30,14.90
2012,04,26,15,31,15.00
2012,04,26,15,32,15.00
2012,04,26,15,33,14.90
2012,04,26,15,34,14.90
2012,04,26,15,35,14.80
2012,04,26,15,36,14.80
2012,04,26,15,37,14.80
2012,04,26,15,38,14.80
2012,04,26,15,39,14.80
2012,04,26,15,40,14.90
2012,04,26,15,41,14.90
2012,04,26,15,42,15.00
2012,04,26,15,43,15.10
2012,04,26,15,44,15.20
2012,04,26,15,45,15.30
2012,04,26,15,46,15.30
2012,04,26,15,47,15.50
2012,04,26,15,48,15.60
2012,04,26,15,49,15.70
2012,04,26,15,50,15.80
2012,04,26,15,51,15.90
2012,04,26,15,52,15.90
2012,04,26,15,53,15.80
2012,04,26,15,54,15.80
2012,04,26,15,55,15.80
2012,04,26,15,56,15.80
2012,04,26,15,57,15.70
2012,04,26,15,58,15.70
2012,04,26,15,59,15.70
2012,04,26,16,00,15.70
2012,04,26,16,01,15.70
2012,04,26,16,02,15.80
2012,04,26,16,03,15.80
2012,04,26,16,04,15.90
2012,04,26,16,05,15.90
2012,04,26,16,06,15.90
2012,04,26,16,07,15.90
2012,04,26,16,08,15.90
2012,04,26,16,09,15.90
2012,04,26,16,10,15.90
2012,04,26,16,11,15.90
2012,04,26,16,12,16.00
2012,04,26,16,13,16.10
2012,04,26,16,14,16.10
2012,04,26,16,15,16.20
2012,04,26,16,16,16.10
2012,04,26,16,17,16.00
2012,04,26,16,18,15.90
2012,04,26,16,19,15.80
2012,04,26,16,20,15.60
2012,04,26,16,21,15.40
2012,04,26,16,22,15.30
2012,04,26,16,23,15.10
2012,04,26,16,24,14.90
2012,04,26,16,25,14.70
2012,04,26,16,26,14.60
2012,04,26,16,27,14.40
2012,04,26,16,28,14.30
2012,04,26,16,29,14.20
2012,04,26,16,30,14.10
2012,04,26,16,31,14.00
2012,04,26,16,32,13.90
2012,04,26,16,33,13.90
2012,04,26,16,34,13.90
2012,04,26,16,35,14.00
2012,04,26,16,36,14.10
2012,04,26,16,37,14.10
2012,04,26,16,38,14.20
2012,04,26,16,39,14.30
2012,04,26,16,40,14.40
2012,04,26,16,41,14.50
2012,04,26,16,42,14.60
2012,04,26,16,43,14.60
2012,04,26,16,44,14.50
2012,04,26,16,45,14.50
2012,04,26,16,46,14.50
2012,04,26,16,47,14.40
2012,04,26,16,48,14.20
2012,04,26,16,49,14.10
2012,04,26,16,50,14.00
2012,04,26,16,51,13.80
2012,04,26,16,52,13.70
2012,04,26,16,53,13.60
2012,04,26,16,54,13.60
2012,04,26,16,55,13.60
2012,04,26,16,56,13.60
2012,04,26,16,57,13.60
2012,04,26,16,58,13.60
2012,04,26,16,59,13.60
2012,04,26,17,00,13.60
2012,04,26,17,01,13.60
2012,04,26,17,02,13.70
2012,04,26,17,03,13.70
2012,04,26,17,04,13.70
2012,04,26,17,05,13.70
2012,04,26,17,06,13.80
2012,04,26,17,07,13.80
2012,04,26,17,08,13.80
2012,04,26,17,09,13.90
2012,04,26,17,10,13.90
2012,04,26,17,11,13.90
2012,04,26,17,12,13.90
2012,04,26,17,13,13.90
2012,04,26,17,14,13.90
2012,04,26,17,15,14.00
2012,04,26,17,16,14.00
2012,04,26,17,17,14.10
2012,04,26,17,18,14.10
2012,04,26,17,19,14.10
2012,04,26,17,20,14.10
2012,04,26,17,21,14.10
2012,04,26,17,22,14.10
2012,04,26,17,23,14.10
2012,04,26,17,24,14.10
2012,04,26,17,25,14.10
2012,04,26,17,26,14.10
2012,04,26,17,27,14.20
2012,04,26,17,28,14.20
2012,04,26,17,29,14.20
2012,04,26,17,30,14.20
2012,04,26,17,31,14.20
2012,04,26,17,32,14.20
2012,04,26,17,33,14.20
2012,04,26,17,34,14.20
2012,04,26,17,35,14.20
2012,04,26,17,36,14.20
2012,04,26,17,37,14.20
2012,04,26,17,38,14.20